Tank 1 Data Log     Home

ID Sensor Location Level (%) Temp Hum Vin Level (cm) Log Time
223064 Tank1 Siffie48 70 12.7 100 2.1 68 2026-09-02 06:57:05
223063 Tank1 Siffie48 70 12.7 100 2.1 68 2026-09-02 06:41:59
223062 Tank1 Siffie48 70 12.7 100 2.1 68 2026-09-02 06:26:53
223061 Tank1 Siffie48 70 12.7 100 2.1 68 2026-09-02 06:11:48
223060 Tank1 Siffie48 70 12.7 100 2.1 68 2026-09-02 05:56:42
223059 Tank1 Siffie48 70 12.7 100 2.1 68 2026-09-02 05:41:36
223058 Tank1 Siffie48 70 12.6 100 2.1 68 2026-09-02 05:26:31
223057 Tank1 Siffie48 70 12.7 100 2.1 68 2026-09-02 05:11:25
223056 Tank1 Siffie48 70 13.0 100 2.1 68 2026-09-02 04:56:19
223055 Tank1 Siffie48 70 13.4 100 2.1 68 2026-09-02 04:41:14
223054 Tank1 Siffie48 70 13.6 100 2.1 68 2026-09-02 04:26:08
223053 Tank1 Siffie48 70 13.7 100 2.2 68 2026-09-02 04:11:02
223052 Tank1 Siffie48 70 13.9 100 2.1 68 2026-09-02 03:55:56
223051 Tank1 Siffie48 70 13.9 100 2.1 68 2026-09-02 03:40:51
223050 Tank1 Siffie48 70 14.0 100 2.1 68 2026-09-02 03:25:45
223049 Tank1 Siffie48 70 14.1 100 2.1 68 2026-09-02 03:10:39
223048 Tank1 Siffie48 70 14.2 100 2.1 68 2026-09-02 02:55:34
223047 Tank1 Siffie48 70 13.9 100 2.1 68 2026-09-02 02:40:28
223046 Tank1 Siffie48 70 13.7 100 2.1 68 2026-09-02 02:25:22
223045 Tank1 Siffie48 70 13.7 100 2.1 68 2026-09-02 02:10:17
223044 Tank1 Siffie48 70 13.8 100 2.1 27 2026-09-02 01:55:11
223043 Tank1 Siffie48 70 13.9 100 2.1 68 2026-09-02 01:40:05
223042 Tank1 Siffie48 70 14.2 100 2.1 68 2026-09-02 01:25:00
223041 Tank1 Siffie48 70 14.4 100 2.1 68 2026-09-02 01:09:54
223040 Tank1 Siffie48 70 14.3 100 2.1 68 2026-09-02 00:54:48
223039 Tank1 Siffie48 70 14.5 100 2.1 68 2026-09-02 00:39:42
223038 Tank1 Siffie48 70 14.6 100 2.1 68 2026-09-02 00:24:37
223037 Tank1 Siffie48 70 14.8 100 2.1 68 2026-09-02 00:09:31
223036 Tank1 Siffie48 70 15.0 100 2.1 68 2026-09-01 23:54:25
223035 Tank1 Siffie48 70 15.2 100 2.1 68 2026-09-01 23:39:20
223034 Tank1 Siffie48 70 15.4 100 2.1 68 2026-09-01 23:24:14
223033 Tank1 Siffie48 70 15.5 100 2.1 68 2026-09-01 23:09:08
223032 Tank1 Siffie48 70 15.4 100 2.1 68 2026-09-01 22:54:03
223031 Tank1 Siffie48 70 15.5 100 2.1 68 2026-09-01 22:38:57
223030 Tank1 Siffie48 70 15.5 100 2.1 68 2026-09-01 22:23:51
223029 Tank1 Siffie48 70 15.4 100 2.1 68 2026-09-01 22:08:45
223028 Tank1 Siffie48 70 15.3 100 2.1 68 2026-09-01 21:53:40
223027 Tank1 Siffie48 70 15.4 100 2.1 68 2026-09-01 21:38:34
223026 Tank1 Siffie48 70 15.4 100 2.1 68 2026-09-01 21:23:28
223025 Tank1 Siffie48 70 15.4 100 2.1 68 2026-09-01 21:08:22
223024 Tank1 Siffie48 70 15.5 100 2.1 68 2026-09-01 20:53:17
223023 Tank1 Siffie48 70 15.6 100 2.1 68 2026-09-01 20:38:11
223022 Tank1 Siffie48 70 15.7 100 2.1 68 2026-09-01 20:23:03
223021 Tank1 Siffie48 70 15.8 100 2.1 68 2026-09-01 20:07:57
223020 Tank1 Siffie48 70 15.8 100 2.1 68 2026-09-01 19:52:51
223019 Tank1 Siffie48 70 16.0 100 2.1 68 2026-09-01 19:37:46
223018 Tank1 Siffie48 70 16.3 100 2.1 68 2026-09-01 19:22:40
223017 Tank1 Siffie48 70 16.4 100 2.1 68 2026-09-01 19:07:34
223016 Tank1 Siffie48 70 16.7 100 2.1 68 2026-09-01 18:52:29
223015 Tank1 Siffie48 70 17.1 100 2.1 68 2026-09-01 18:37:23
223014 Tank1 Siffie48 70 17.5 100 2.1 68 2026-09-01 18:22:17
223013 Tank1 Siffie48 70 17.8 100 2.1 68 2026-09-01 18:07:12
223012 Tank1 Siffie48 70 18.2 100 2.1 68 2026-09-01 17:52:06
223011 Tank1 Siffie48 70 18.5 100 2.1 68 2026-09-01 17:37:00
223010 Tank1 Siffie48 70 18.8 100 2.1 68 2026-09-01 17:21:54
223009 Tank1 Siffie48 70 19.1 100 2.1 68 2026-09-01 17:06:49
223008 Tank1 Siffie48 70 19.2 100 2.1 68 2026-09-01 16:51:43
223007 Tank1 Siffie48 70 19.5 100 2.1 68 2026-09-01 16:36:37
223006 Tank1 Siffie48 70 19.8 100 2.1 67 2026-09-01 16:21:32
223005 Tank1 Siffie48 70 20.3 100 2.1 67 2026-09-01 16:06:26
223004 Tank1 Siffie48 70 20.6 100 2.1 67 2026-09-01 15:51:20
223003 Tank1 Siffie48 70 20.6 100 2.1 67 2026-09-01 15:36:14
223002 Tank1 Siffie48 70 20.9 100 2.1 68 2026-09-01 15:21:08
223001 Tank1 Siffie48 70 21.1 100 2.1 68 2026-09-01 15:06:03
223000 Tank1 Siffie48 70 21.3 100 2.1 68 2026-09-01 14:50:57
222999 Tank1 Siffie48 70 21.5 100 2.1 68 2026-09-01 14:35:51
222998 Tank1 Siffie48 70 21.8 100 2.1 68 2026-09-01 14:20:45
222997 Tank1 Siffie48 70 22.2 100 2.1 68 2026-09-01 14:05:40
222996 Tank1 Siffie48 70 23.0 99 2.1 68 2026-09-01 13:50:34
222995 Tank1 Siffie48 70 23.7 99 2.1 67 2026-09-01 13:35:28
222994 Tank1 Siffie48 70 25.0 99 2.1 67 2026-09-01 13:20:23
222993 Tank1 Siffie48 70 26.9 99 2.1 67 2026-09-01 13:05:17
222992 Tank1 Siffie48 70 28.9 99 2.1 67 2026-09-01 12:50:11
222991 Tank1 Siffie48 71 29.7 99 1.8 66 2026-09-01 12:35:06
222990 Tank1 Siffie48 71 30.6 99 1.9 66 2026-09-01 12:20:00
222989 Tank1 Siffie48 71 31.0 100 1.9 65 2026-09-01 12:04:54
222988 Tank1 Siffie48 71 30.5 100 2.1 66 2026-09-01 11:49:48
222987 Tank1 Siffie48 71 29.0 100 1.9 65 2026-09-01 11:34:42
222986 Tank1 Siffie48 71 28.6 100 2.1 66 2026-09-01 11:19:37
222985 Tank1 Siffie48 71 29.9 100 2.1 66 2026-09-01 11:04:31
222984 Tank1 Siffie48 71 28.7 100 2.1 66 2026-09-01 10:49:25
222983 Tank1 Siffie48 71 26.8 100 2.1 66 2026-09-01 10:34:19
222982 Tank1 Siffie48 71 24.2 100 2.1 66 2026-09-01 10:19:14
222981 Tank1 Siffie48 71 22.6 100 2.1 66 2026-09-01 10:04:08
222980 Tank1 Siffie48 71 21.0 100 2.1 67 2026-09-01 09:49:02
222979 Tank1 Siffie48 71 17.9 100 2.1 67 2026-09-01 09:33:57
222978 Tank1 Siffie48 70 16.0 100 2.1 67 2026-09-01 09:18:51
222977 Tank1 Siffie48 70 14.6 100 2.1 67 2026-09-01 09:03:45
222976 Tank1 Siffie48 70 13.6 100 2.1 68 2026-09-01 08:48:39
222975 Tank1 Siffie48 70 13.1 100 2.1 68 2026-09-01 08:33:34
222974 Tank1 Siffie48 70 12.4 100 2.1 68 2026-09-01 08:18:28
222973 Tank1 Siffie48 70 11.9 100 2.1 68 2026-09-01 08:03:22
222972 Tank1 Siffie48 70 11.6 100 2.2 68 2026-09-01 07:48:17
222971 Tank1 Siffie48 70 11.8 100 2.1 68 2026-09-01 07:33:11
222970 Tank1 Siffie48 70 11.8 100 2.1 68 2026-09-01 07:18:05
222969 Tank1 Siffie48 70 12.3 100 2.1 68 2026-09-01 07:02:59
222968 Tank1 Siffie48 70 12.7 100 2.1 68 2026-09-01 06:47:54
222967 Tank1 Siffie48 70 12.6 100 2.1 68 2026-09-01 06:32:48
222966 Tank1 Siffie48 70 12.6 100 2.1 68 2026-09-01 06:17:42
222965 Tank1 Siffie48 70 12.5 100 2.1 68 2026-09-01 06:02:37